This is the latest recevied weather packets stored in our database for station/object TA2LKM-11. If no packets are shown the sender has not sent any weather packets the latest 10 day(s).
| Time | Temp. | Humidity | Pressure | Rain* | Wind** | Luminosity | Snow |
|---|---|---|---|---|---|---|---|
| 1787855463 | 29.44° C | 42% | 1015 hPa | - | - | - | - |
| 1787854562 | 29.44° C | 41% | 1014.9 hPa | - | - | - | - |
| 1787853661 | 30° C | 41% | 1014.7 hPa | - | - | - | - |
| 1787852760 | 30° C | 40% | 1014.6 hPa | - | - | - | - |
| 1787851860 | 30° C | 39% | 1014.4 hPa | - | - | - | - |
| 1787850959 | 30° C | 39% | 1014.3 hPa | - | - | - | - |
| 1787850058 | 30.56° C | 39% | 1014.2 hPa | - | - | - | - |
| 1787849157 | 30.56° C | 38% | 1014 hPa | - | - | - | - |
| 1787848257 | 31.67° C | 36% | 1013.9 hPa | - | - | - | - |
| 1787847356 | 31.67° C | 35% | 1013.9 hPa | - | - | - | - |
| 1787846455 | 32.22° C | 34% | 1013.8 hPa | - | - | - | - |
| 1787845571 | 32.78° C | 33% | 1013.8 hPa | - | - | - | - |
| 1787844671 | 32.78° C | 32% | 1013.7 hPa | - | - | - | - |
| 1787843770 | 33.33° C | 33% | 1013.5 hPa | - | - | - | - |
| 1787842869 | 33.33° C | 35% | 1013.4 hPa | - | - | - | - |
| 1787841969 | 34.44° C | 32% | 1013.4 hPa | - | - | - | - |
| 1787841068 | 34.44° C | 32% | 1013.6 hPa | - | - | - | - |
| 1787840167 | 34.44° C | 33% | 1013.7 hPa | - | - | - | - |
| 1787839266 | 35° C | 32% | 1013.7 hPa | - | - | - | - |
| 1787838367 | 35.56° C | 34% | 1013.7 hPa | - | - | - | - |
| 1787837465 | 35° C | 33% | 1013.9 hPa | - | - | - | - |
| 1787836564 | 35.56° C | 32% | 1014 hPa | - | - | - | - |
| 1787835663 | 36.11° C | 34% | 1014 hPa | - | - | - | - |
| 1787834763 | 36.67° C | 32% | 1014.2 hPa | - | - | - | - |
| 1787833862 | 36.67° C | 32% | 1014.2 hPa | - | - | - | - |
* Rain since midnight (hover to see other rain measurements)
** Current wind speed in m/s (hover to see current wind gust speed)